Location: Gisborne
(38.6530°S, 178.0040°E)
Time: 12:49:44
(UTC+13:00)

Meteor 2-6 Rocket - Pass Details

Date: 24 January 2019
Orbit: 805 x 916 km, 81.3° (Epoch: 16 February)

Event Time Altitude Azimuth Distance (km) Brightness Sun altitude
Exits shadow 23:33:39 66° 111° (ESE) 888 4.2 -27.0°
Drops below altitude 10° 23:38:43 10° 166° (SSE) 2,424 7.2 -27.4°
Sets 23:41:08 0° 168° (SSE) 3,370 8.1 -27.7°
